GTI152 EGPK-LEBL

Flight info

Callsign GTI152
Flight time 2h 11m
Altitude 35000
Route SUDBY Z249 OSMEG T256 DCS DCT AKOMU DCT VAMEB UL612 HON DCT SITET UN859 SOPIL DCT BALAN DCT EVPOK DCT NARAK DCT GAI DCT LOMRA DCT ROCAN DCT PUMAL
Aircraft B77L/H-SDE1E2E3FGHIJ2J3J4J5M1RWXY/LB1D1

Departure

Time 2026-04-28 20:13
Airport Glasgow Prestwick Airport (EGPK)

Arrival

Time 2026-04-28 22:25
Airport Josep Tarradellas Barcelona-El Prat Airport (LEBL)
Time Latitude Longitude Altitude Speed Heading
2026-04-28 19:28 55.51105 -4.60962 55 ft 0 kts 121°
2026-04-28 20:01 55.51107 -4.60968 55 ft 3 kts 121°
2026-04-28 20:02 55.51122 -4.61008 47 ft 4 kts 121°
2026-04-28 20:02 55.51133 -4.61046 46 ft 4 kts 102°
2026-04-28 20:02 55.51134 -4.61086 46 ft 4 kts 68°
2026-04-28 20:02 55.51121 -4.61123 46 ft 4 kts 41°
2026-04-28 20:03 55.51100 -4.61152 46 ft 4 kts 36°
2026-04-28 20:03 55.51086 -4.61170 46 ft 0 kts 41°
2026-04-28 20:08 55.51089 -4.61165 50 ft 3 kts 41°
2026-04-28 20:09 55.51119 -4.61112 50 ft 7 kts 50°
2026-04-28 20:09 55.51150 -4.61045 48 ft 7 kts 53°
2026-04-28 20:09 55.51177 -4.60973 50 ft 7 kts 56°
2026-04-28 20:09 55.51211 -4.60915 49 ft 7 kts 13°
2026-04-28 20:10 55.51255 -4.60960 48 ft 8 kts 322°
2026-04-28 20:10 55.51286 -4.61043 48 ft 9 kts 303°
2026-04-28 20:10 55.51320 -4.61143 46 ft 10 kts 301°
2026-04-28 20:10 55.51360 -4.61258 48 ft 12 kts 301°
2026-04-28 20:11 55.51404 -4.61383 47 ft 12 kts 306°
2026-04-28 20:11 55.51468 -4.61482 50 ft 12 kts 329°
2026-04-28 20:11 55.51515 -4.61516 50 ft 0 kts 344°
2026-04-28 20:12 55.51518 -4.61518 50 ft 1 kts 344°
2026-04-28 20:12 55.51539 -4.61524 50 ft 7 kts 354°
2026-04-28 20:12 55.51601 -4.61475 49 ft 11 kts 48°
2026-04-28 20:12 55.51604 -4.61389 49 ft 11 kts 111°
2026-04-28 20:13 55.51531 -4.61165 49 ft 34 kts 121°
2026-04-28 20:13 55.51273 -4.60412 50 ft 108 kts 121°
2026-04-28 20:13 55.50776 -4.58936 97 ft 163 kts 116°
2026-04-28 20:13 55.50179 -4.57218 684 ft 164 kts 118°
2026-04-28 20:14 55.49583 -4.55454 1333 ft 169 kts 117°
2026-04-28 20:14 55.48980 -4.53639 1983 ft 177 kts 120°
2026-04-28 20:14 55.48281 -4.51671 2295 ft 203 kts 120°
2026-04-28 20:14 55.47481 -4.49425 2535 ft 233 kts 120°
2026-04-28 20:15 55.46592 -4.46930 3164 ft 245 kts 121°
2026-04-28 20:15 55.45607 -4.44442 3886 ft 253 kts 133°
2026-04-28 20:15 55.44161 -4.42632 4579 ft 259 kts 148°
2026-04-28 20:15 55.42594 -4.40977 5413 ft 261 kts 146°
2026-04-28 20:16 55.41038 -4.39280 5954 ft 265 kts 146°
2026-04-28 20:16 55.39466 -4.37564 5997 ft 267 kts 145°
2026-04-28 20:16 55.37916 -4.35788 6393 ft 266 kts 144°
2026-04-28 20:16 55.36365 -4.33965 7247 ft 268 kts 143°
2026-04-28 20:17 55.34807 -4.32130 8095 ft 271 kts 143°
2026-04-28 20:17 55.33230 -4.30276 8923 ft 274 kts 143°
2026-04-28 20:17 55.31639 -4.28408 9734 ft 278 kts 142°
2026-04-28 20:17 55.30021 -4.26510 10508 ft 281 kts 142°
2026-04-28 20:18 55.28359 -4.24565 11056 ft 295 kts 142°
2026-04-28 20:18 55.27197 -4.23202 11162 ft 313 kts 142°
2026-04-28 20:18 55.24645 -4.20213 11440 ft 347 kts 143°
2026-04-28 20:18 55.22578 -4.17804 11856 ft 363 kts 142°
2026-04-28 20:19 55.20469 -4.15354 12579 ft 372 kts 142°
2026-04-28 20:19 55.18292 -4.12834 13481 ft 376 kts 142°
2026-04-28 20:19 55.16097 -4.10300 14394 ft 380 kts 142°
2026-04-28 20:19 55.13874 -4.07736 15198 ft 384 kts 142°
2026-04-28 20:20 55.11627 -4.05145 15955 ft 389 kts 142°
2026-04-28 20:20 55.09356 -4.02528 16696 ft 394 kts 141°
2026-04-28 20:20 55.07050 -3.99873 17444 ft 399 kts 141°
2026-04-28 20:20 55.04708 -3.97180 18213 ft 404 kts 141°
2026-04-28 20:21 55.02348 -3.94470 18920 ft 409 kts 141°
2026-04-28 20:21 54.99957 -3.91730 19558 ft 414 kts 141°
2026-04-28 20:21 54.97539 -3.88964 20218 ft 417 kts 141°
2026-04-28 20:21 54.95100 -3.86177 20885 ft 421 kts 141°
2026-04-28 20:22 54.92644 -3.83376 21534 ft 425 kts 141°
2026-04-28 20:22 54.90160 -3.80545 22159 ft 429 kts 141°
2026-04-28 20:22 54.87648 -3.77686 22784 ft 433 kts 141°
2026-04-28 20:22 54.85111 -3.74802 23396 ft 437 kts 141°
2026-04-28 20:23 54.82550 -3.71897 24011 ft 441 kts 141°
2026-04-28 20:23 54.80007 -3.69018 24519 ft 445 kts 141°
2026-04-28 20:23 54.77404 -3.66074 25017 ft 449 kts 141°
2026-04-28 20:23 54.74763 -3.63092 25521 ft 452 kts 141°
2026-04-28 20:24 54.72112 -3.60103 26013 ft 456 kts 141°
2026-04-28 20:24 54.69446 -3.57102 26493 ft 460 kts 141°
2026-04-28 20:24 54.66759 -3.54083 26982 ft 463 kts 141°
2026-04-28 20:24 54.64040 -3.51032 27455 ft 467 kts 141°
2026-04-28 20:25 54.61305 -3.47969 27924 ft 470 kts 141°
2026-04-28 20:25 54.58594 -3.44937 28381 ft 473 kts 141°
2026-04-28 20:25 54.55791 -3.41808 28841 ft 477 kts 141°
2026-04-28 20:25 54.52981 -3.38676 29268 ft 480 kts 141°
2026-04-28 20:26 54.50165 -3.35541 29691 ft 483 kts 141°
2026-04-28 20:26 54.47334 -3.32396 30094 ft 486 kts 141°
2026-04-28 20:26 54.44495 -3.29250 30564 ft 488 kts 141°
2026-04-28 20:26 54.41639 -3.26091 31017 ft 486 kts 141°
2026-04-28 20:27 54.38789 -3.22945 31510 ft 485 kts 141°
2026-04-28 20:27 54.35960 -3.19826 32008 ft 483 kts 141°
2026-04-28 20:27 54.33177 -3.16761 32450 ft 482 kts 141°
2026-04-28 20:27 54.30361 -3.13664 32885 ft 481 kts 141°
2026-04-28 20:28 54.27542 -3.10567 33308 ft 480 kts 141°
2026-04-28 20:28 54.24735 -3.07488 33747 ft 480 kts 141°
2026-04-28 20:28 54.21917 -3.04404 34172 ft 479 kts 141°
2026-04-28 20:28 54.19121 -3.01348 34571 ft 478 kts 141°
2026-04-28 20:29 54.16318 -2.98289 34913 ft 477 kts 141°
2026-04-28 20:29 54.13519 -2.95240 35251 ft 476 kts 141°
2026-04-28 20:29 54.10722 -2.92195 35405 ft 479 kts 141°
2026-04-28 20:30 54.05075 -2.86066 35463 ft 479 kts 141°
2026-04-28 20:30 53.99390 -2.80219 35444 ft 478 kts 146°
2026-04-28 20:31 53.93226 -2.75771 35455 ft 482 kts 151°
2026-04-28 20:31 53.87087 -2.71432 35448 ft 480 kts 150°
2026-04-28 20:32 53.80945 -2.66960 35453 ft 480 kts 150°
2026-04-28 20:32 53.74787 -2.62523 35451 ft 481 kts 150°
2026-04-28 20:33 53.68601 -2.58107 35450 ft 482 kts 150°
2026-04-28 20:33 53.62454 -2.53727 35439 ft 483 kts 150°
2026-04-28 20:34 53.56258 -2.49313 35443 ft 483 kts 150°
2026-04-28 20:34 53.50088 -2.44922 35429 ft 482 kts 150°
2026-04-28 20:35 53.43893 -2.40535 35434 ft 482 kts 150°
2026-04-28 20:35 53.37726 -2.36192 35433 ft 481 kts 150°
2026-04-28 20:36 53.31535 -2.31842 35435 ft 480 kts 150°
2026-04-28 20:36 53.25363 -2.27517 35431 ft 479 kts 149°
2026-04-28 20:37 53.19241 -2.23290 35424 ft 479 kts 150°
2026-04-28 20:37 53.13045 -2.19041 35427 ft 478 kts 150°
2026-04-28 20:38 53.06950 -2.14830 35414 ft 477 kts 150°
2026-04-28 20:38 53.00821 -2.10592 35412 ft 476 kts 149°
2026-04-28 20:39 52.94711 -2.06381 35412 ft 476 kts 150°
2026-04-28 20:39 52.89603 -2.02873 35407 ft 476 kts 150°
2026-04-28 20:40 52.83486 -1.98685 35398 ft 475 kts 150°
2026-04-28 20:40 52.77378 -1.94517 35397 ft 475 kts 150°
2026-04-28 20:41 52.71246 -1.90344 35399 ft 475 kts 150°
2026-04-28 20:41 52.65173 -1.86224 35386 ft 475 kts 150°
2026-04-28 20:42 52.59057 -1.82088 35387 ft 475 kts 150°
2026-04-28 20:42 52.52940 -1.77964 35383 ft 474 kts 150°
2026-04-28 20:43 52.46827 -1.73854 35379 ft 474 kts 150°
2026-04-28 20:43 52.40730 -1.69764 35381 ft 473 kts 150°
2026-04-28 20:44 52.34683 -1.65661 35366 ft 470 kts 148°
2026-04-28 20:44 52.28788 -1.61119 35369 ft 469 kts 147°
2026-04-28 20:45 52.22894 -1.56506 35380 ft 468 kts 147°
2026-04-28 20:45 52.17026 -1.51944 35377 ft 467 kts 147°
2026-04-28 20:46 52.11143 -1.47405 35378 ft 466 kts 147°
2026-04-28 20:46 52.05320 -1.42934 35370 ft 465 kts 147°
2026-04-28 20:47 51.99458 -1.38447 35329 ft 464 kts 148°
2026-04-28 20:47 51.93614 -1.33985 35322 ft 463 kts 148°
2026-04-28 20:48 51.87777 -1.29541 35321 ft 462 kts 148°
2026-04-28 20:48 51.81957 -1.25121 35321 ft 462 kts 148°
2026-04-28 20:49 51.76146 -1.20721 35325 ft 461 kts 148°
2026-04-28 20:49 51.70334 -1.16333 35298 ft 461 kts 148°
2026-04-28 20:50 51.64566 -1.11992 35301 ft 461 kts 148°
2026-04-28 20:50 51.58781 -1.07650 35299 ft 462 kts 148°
2026-04-28 20:51 51.52946 -1.03283 35299 ft 462 kts 148°
2026-04-28 20:51 51.47095 -0.98916 35287 ft 463 kts 148°
2026-04-28 20:52 51.41248 -0.94564 35305 ft 464 kts 149°
2026-04-28 20:52 51.35381 -0.90209 35291 ft 465 kts 149°
2026-04-28 20:53 51.26561 -0.83687 35299 ft 466 kts 149°
2026-04-28 20:53 51.20708 -0.79374 35301 ft 466 kts 149°
2026-04-28 20:54 51.14793 -0.75028 35294 ft 467 kts 150°
2026-04-28 20:54 51.08886 -0.70700 35290 ft 467 kts 150°
2026-04-28 20:55 51.03028 -0.66421 35270 ft 467 kts 150°
2026-04-28 20:55 50.97134 -0.62127 35251 ft 466 kts 150°
2026-04-28 20:56 50.91234 -0.57839 35243 ft 465 kts 150°
2026-04-28 20:56 50.85354 -0.53579 35236 ft 465 kts 150°
2026-04-28 20:57 50.79469 -0.49326 35231 ft 464 kts 151°
2026-04-28 20:57 50.73594 -0.45093 35230 ft 464 kts 151°
2026-04-28 20:58 50.67749 -0.40893 35222 ft 465 kts 151°
2026-04-28 20:58 50.61853 -0.36667 35220 ft 466 kts 152°
2026-04-28 20:59 50.55931 -0.32435 35212 ft 467 kts 152°
2026-04-28 20:59 50.49989 -0.28199 35213 ft 469 kts 152°
2026-04-28 21:00 50.44068 -0.23992 35211 ft 471 kts 152°
2026-04-28 21:00 50.38089 -0.19755 35201 ft 472 kts 152°
2026-04-28 21:01 50.32103 -0.15525 35198 ft 472 kts 153°
2026-04-28 21:01 50.26111 -0.11302 35190 ft 472 kts 153°
2026-04-28 21:02 50.20099 -0.07075 35180 ft 473 kts 153°
2026-04-28 21:02 50.14117 -0.02883 35184 ft 469 kts 154°
2026-04-28 21:03 50.08047 0.00867 35169 ft 472 kts 161°
2026-04-28 21:03 50.01678 0.03338 35168 ft 468 kts 164°
2026-04-28 21:04 49.95336 0.05766 35175 ft 472 kts 163°
2026-04-28 21:04 49.88997 0.08236 35156 ft 470 kts 164°
2026-04-28 21:05 49.82636 0.10723 35154 ft 474 kts 164°
2026-04-28 21:05 49.76257 0.13208 35133 ft 470 kts 164°
2026-04-28 21:06 49.69889 0.15683 35137 ft 473 kts 165°
2026-04-28 21:06 49.63514 0.18206 35135 ft 473 kts 164°
2026-04-28 21:07 49.57124 0.20813 35131 ft 475 kts 164°
2026-04-28 21:07 49.50823 0.23373 35120 ft 467 kts 165°
2026-04-28 21:08 49.44599 0.25883 35120 ft 458 kts 166°
2026-04-28 21:08 49.38402 0.28372 35141 ft 465 kts 166°
2026-04-28 21:09 49.32085 0.30904 35137 ft 472 kts 166°
2026-04-28 21:09 49.25736 0.33516 35128 ft 472 kts 165°
2026-04-28 21:10 49.19407 0.36199 35119 ft 471 kts 166°
2026-04-28 21:10 49.13088 0.38865 35111 ft 469 kts 166°
2026-04-28 21:11 49.06851 0.41477 35101 ft 466 kts 166°
2026-04-28 21:11 49.00610 0.44079 35093 ft 464 kts 166°
2026-04-28 21:12 48.94392 0.46665 35086 ft 462 kts 167°
2026-04-28 21:12 48.88207 0.49232 35087 ft 460 kts 167°
2026-04-28 21:13 48.82023 0.51792 35081 ft 459 kts 167°
2026-04-28 21:13 48.75860 0.54303 35080 ft 459 kts 168°
2026-04-28 21:14 48.69670 0.56709 35071 ft 459 kts 168°
2026-04-28 21:14 48.63521 0.59093 35069 ft 459 kts 168°
2026-04-28 21:15 48.57336 0.61502 35067 ft 459 kts 169°
2026-04-28 21:15 48.51135 0.63917 35059 ft 459 kts 168°
2026-04-28 21:16 48.44965 0.66417 35056 ft 459 kts 168°
2026-04-28 21:16 48.38797 0.68940 35052 ft 459 kts 168°
2026-04-28 21:17 48.32642 0.71437 35043 ft 458 kts 169°
2026-04-28 21:17 48.26488 0.73921 35036 ft 457 kts 169°
2026-04-28 21:18 48.20338 0.76371 35036 ft 457 kts 169°
2026-04-28 21:18 48.14190 0.78784 35025 ft 456 kts 169°
2026-04-28 21:19 48.08054 0.81189 35032 ft 455 kts 169°
2026-04-28 21:19 48.01966 0.83574 35022 ft 455 kts 170°
2026-04-28 21:20 47.95837 0.85970 35020 ft 455 kts 170°
2026-04-28 21:20 47.89715 0.88359 35019 ft 455 kts 170°
2026-04-28 21:21 47.83585 0.90744 35011 ft 455 kts 170°
2026-04-28 21:21 47.77460 0.93117 35010 ft 455 kts 171°
2026-04-28 21:22 47.71317 0.95490 35005 ft 456 kts 171°
2026-04-28 21:22 47.66210 0.97459 35001 ft 456 kts 171°
2026-04-28 21:23 47.59056 1.00211 35000 ft 457 kts 171°
2026-04-28 21:23 47.52853 1.02592 34996 ft 458 kts 171°
2026-04-28 21:24 47.46711 1.04940 34996 ft 459 kts 172°
2026-04-28 21:24 47.40459 1.06316 35003 ft 452 kts 182°
2026-04-28 21:25 47.34215 1.06272 34998 ft 449 kts 186°
2026-04-28 21:25 47.27957 1.06077 35000 ft 450 kts 186°
2026-04-28 21:26 47.21688 1.05921 34997 ft 451 kts 186°
2026-04-28 21:26 47.16458 1.05805 34993 ft 451 kts 186°
2026-04-28 21:27 47.10177 1.05668 34996 ft 452 kts 186°
2026-04-28 21:27 47.03892 1.05529 34988 ft 452 kts 186°
2026-04-28 21:28 46.97608 1.05323 34988 ft 451 kts 187°
2026-04-28 21:28 46.91326 1.05030 34983 ft 451 kts 187°
2026-04-28 21:29 46.85058 1.04742 34981 ft 450 kts 187°
2026-04-28 21:29 46.78792 1.04467 34982 ft 450 kts 187°
2026-04-28 21:30 46.72570 1.04200 34975 ft 450 kts 187°
2026-04-28 21:30 46.66302 1.03930 34969 ft 451 kts 187°
2026-04-28 21:31 46.60029 1.03661 34973 ft 451 kts 187°
2026-04-28 21:31 46.53746 1.03481 34968 ft 454 kts 183°
2026-04-28 21:32 46.47421 1.04592 34967 ft 462 kts 173°
2026-04-28 21:32 46.41141 1.06729 34973 ft 464 kts 172°
2026-04-28 21:33 46.34903 1.08865 34972 ft 464 kts 173°
2026-04-28 21:33 46.28620 1.10978 34971 ft 464 kts 173°
2026-04-28 21:34 46.22325 1.13072 34975 ft 464 kts 173°
2026-04-28 21:34 46.16034 1.15156 34979 ft 464 kts 172°
2026-04-28 21:35 46.09737 1.17238 34980 ft 464 kts 172°
2026-04-28 21:35 46.03460 1.19309 34987 ft 463 kts 172°
2026-04-28 21:36 45.97163 1.21382 34990 ft 463 kts 172°
2026-04-28 21:36 45.90879 1.23446 34985 ft 463 kts 172°
2026-04-28 21:37 45.84628 1.25494 34992 ft 463 kts 172°
2026-04-28 21:37 45.78346 1.27548 34997 ft 463 kts 172°
2026-04-28 21:38 45.72070 1.29596 34984 ft 463 kts 172°
2026-04-28 21:38 45.65785 1.31642 34988 ft 463 kts 172°
2026-04-28 21:39 45.59504 1.33681 34976 ft 463 kts 172°
2026-04-28 21:39 45.53226 1.35715 34974 ft 463 kts 172°
2026-04-28 21:40 45.46938 1.37749 34970 ft 462 kts 172°
2026-04-28 21:40 45.40667 1.39770 34972 ft 462 kts 172°
2026-04-28 21:41 45.34391 1.41790 34968 ft 462 kts 172°
2026-04-28 21:41 45.28165 1.43790 34969 ft 462 kts 172°
2026-04-28 21:42 45.21902 1.45797 34961 ft 462 kts 172°
2026-04-28 21:42 45.15622 1.47805 34967 ft 462 kts 172°
2026-04-28 21:43 45.09334 1.49811 34959 ft 462 kts 172°
2026-04-28 21:43 45.03056 1.51810 34966 ft 463 kts 172°
2026-04-28 21:44 44.96763 1.53809 34965 ft 464 kts 172°
2026-04-28 21:44 44.90449 1.55810 34968 ft 465 kts 172°
2026-04-28 21:45 44.84164 1.57796 34960 ft 466 kts 172°
2026-04-28 21:45 44.77816 1.59798 34968 ft 468 kts 172°
2026-04-28 21:46 44.71454 1.61801 34961 ft 469 kts 172°
2026-04-28 21:46 44.65066 1.63808 34970 ft 470 kts 172°
2026-04-28 21:47 44.58674 1.65812 34972 ft 471 kts 172°
2026-04-28 21:47 44.52262 1.67817 34973 ft 472 kts 172°
2026-04-28 21:48 44.45845 1.69819 34980 ft 472 kts 172°
2026-04-28 21:48 44.39436 1.71815 34963 ft 472 kts 172°
2026-04-28 21:49 44.33065 1.73794 34977 ft 471 kts 172°
2026-04-28 21:49 44.26656 1.75595 34972 ft 468 kts 175°
2026-04-28 21:50 44.20233 1.76987 34973 ft 467 kts 175°
2026-04-28 21:50 44.13819 1.78362 34977 ft 466 kts 175°
2026-04-28 21:51 44.07406 1.79765 34973 ft 466 kts 175°
2026-04-28 21:51 44.00999 1.81174 34970 ft 466 kts 175°
2026-04-28 21:52 43.94601 1.82515 34972 ft 464 kts 178°
2026-04-28 21:52 43.88174 1.83168 34975 ft 462 kts 180°
2026-04-28 21:53 43.81789 1.83743 34972 ft 462 kts 180°
2026-04-28 21:53 43.75363 1.84348 34974 ft 463 kts 180°
2026-04-28 21:54 43.68930 1.84971 34970 ft 464 kts 180°
2026-04-28 21:54 43.62480 1.85597 34969 ft 464 kts 180°
2026-04-28 21:55 43.56022 1.86221 34972 ft 465 kts 180°
2026-04-28 21:55 43.49602 1.86839 34968 ft 465 kts 180°
2026-04-28 21:56 43.43136 1.87462 34953 ft 465 kts 180°
2026-04-28 21:56 43.36677 1.88082 34961 ft 465 kts 180°
2026-04-28 21:57 43.30205 1.88702 34965 ft 465 kts 179°
2026-04-28 21:57 43.23744 1.89324 34968 ft 465 kts 180°
2026-04-28 21:58 43.17268 1.89946 34550 ft 473 kts 180°
2026-04-28 21:58 43.13950 1.90260 33737 ft 478 kts 180°
2026-04-28 21:58 43.10629 1.90579 32839 ft 477 kts 179°
2026-04-28 21:59 43.07287 1.90897 32029 ft 486 kts 179°
2026-04-28 21:59 43.03921 1.91218 31449 ft 484 kts 179°
2026-04-28 21:59 43.00570 1.91541 30852 ft 481 kts 179°
2026-04-28 22:00 42.93945 1.92177 29645 ft 465 kts 179°
2026-04-28 22:00 42.90796 1.92485 29063 ft 449 kts 179°
2026-04-28 22:00 42.87658 1.92778 28514 ft 468 kts 179°
2026-04-28 22:00 42.84411 1.93079 27911 ft 466 kts 179°
2026-04-28 22:01 42.81190 1.93385 27334 ft 461 kts 179°
2026-04-28 22:01 42.77995 1.93690 26775 ft 457 kts 179°
2026-04-28 22:01 42.74861 1.93988 26218 ft 453 kts 179°
2026-04-28 22:01 42.71696 1.94287 25675 ft 450 kts 179°
2026-04-28 22:02 42.68583 1.94580 25127 ft 447 kts 179°
2026-04-28 22:02 42.65493 1.95003 24622 ft 446 kts 175°
2026-04-28 22:02 42.62439 1.95616 24103 ft 444 kts 174°
2026-04-28 22:02 42.59385 1.96247 23555 ft 443 kts 174°
2026-04-28 22:03 42.56329 1.96877 22937 ft 441 kts 174°
2026-04-28 22:03 42.53332 1.97488 22424 ft 429 kts 174°
2026-04-28 22:03 42.50475 1.98066 21680 ft 413 kts 174°
2026-04-28 22:03 42.47682 1.98624 20817 ft 400 kts 174°
2026-04-28 22:04 42.44925 1.99169 20020 ft 398 kts 174°
2026-04-28 22:04 42.42200 1.99709 19359 ft 392 kts 174°
2026-04-28 22:04 42.39516 2.00242 18665 ft 388 kts 174°
2026-04-28 22:04 42.36878 2.00906 17889 ft 387 kts 165°
2026-04-28 22:05 42.34464 2.02526 17082 ft 388 kts 148°
2026-04-28 22:05 42.32243 2.04573 16382 ft 383 kts 148°
2026-04-28 22:05 42.30043 2.06561 15717 ft 378 kts 149°
2026-04-28 22:05 42.27845 2.08513 15071 ft 380 kts 149°
2026-04-28 22:06 42.25628 2.10456 14808 ft 379 kts 149°
2026-04-28 22:06 42.23466 2.12342 14687 ft 374 kts 149°
2026-04-28 22:06 42.21281 2.14243 14494 ft 371 kts 149°
2026-04-28 22:06 42.19117 2.16124 14243 ft 369 kts 149°
2026-04-28 22:07 42.16958 2.18000 14001 ft 369 kts 149°
2026-04-28 22:07 42.14796 2.19875 13758 ft 367 kts 149°
2026-04-28 22:07 42.12651 2.21733 13524 ft 366 kts 149°
2026-04-28 22:07 42.10507 2.23588 13302 ft 363 kts 149°
2026-04-28 22:08 42.08365 2.25350 13083 ft 360 kts 154°
2026-04-28 22:08 42.06085 2.26701 12858 ft 357 kts 160°
2026-04-28 22:08 42.03769 2.27907 12618 ft 356 kts 160°
2026-04-28 22:08 42.01467 2.29111 12394 ft 354 kts 160°
2026-04-28 22:09 41.99179 2.30314 12175 ft 352 kts 160°
2026-04-28 22:09 41.96928 2.31501 11985 ft 350 kts 160°
2026-04-28 22:09 41.94739 2.32662 11830 ft 326 kts 160°
2026-04-28 22:09 41.92700 2.33746 11670 ft 305 kts 160°
2026-04-28 22:10 41.90780 2.34766 11487 ft 288 kts 160°
2026-04-28 22:10 41.88954 2.35735 11195 ft 278 kts 160°
2026-04-28 22:10 41.87180 2.36675 10834 ft 271 kts 160°
2026-04-28 22:10 41.85434 2.37598 10387 ft 268 kts 160°
2026-04-28 22:11 41.83698 2.38517 9930 ft 267 kts 160°
2026-04-28 22:11 41.81979 2.39425 9421 ft 266 kts 160°
2026-04-28 22:11 41.80261 2.40336 8953 ft 265 kts 159°
2026-04-28 22:11 41.78553 2.41238 8516 ft 260 kts 159°
2026-04-28 22:12 41.77463 2.41815 8312 ft 250 kts 159°
2026-04-28 22:12 41.75301 2.42957 7953 ft 255 kts 159°
2026-04-28 22:12 41.73648 2.43829 7647 ft 261 kts 159°
2026-04-28 22:12 41.71952 2.44724 7345 ft 262 kts 159°
2026-04-28 22:13 41.70268 2.45613 7029 ft 258 kts 159°
2026-04-28 22:13 41.69143 2.46207 6838 ft 255 kts 159°
2026-04-28 22:13 41.67498 2.47074 6535 ft 251 kts 159°
2026-04-28 22:13 41.65889 2.47922 6243 ft 246 kts 159°
2026-04-28 22:14 41.64305 2.48756 5947 ft 244 kts 159°
2026-04-28 22:14 41.62703 2.49598 5694 ft 251 kts 159°
2026-04-28 22:14 41.61054 2.50466 5395 ft 256 kts 159°
2026-04-28 22:14 41.59420 2.51325 5113 ft 254 kts 159°
2026-04-28 22:15 41.57765 2.52195 4807 ft 251 kts 159°
2026-04-28 22:15 41.56156 2.53040 4506 ft 246 kts 159°
2026-04-28 22:15 41.54597 2.53858 4220 ft 241 kts 159°
2026-04-28 22:15 41.53037 2.54679 4056 ft 236 kts 157°
2026-04-28 22:16 41.51518 2.55646 4015 ft 249 kts 157°
2026-04-28 22:16 41.49905 2.56529 3988 ft 256 kts 159°
2026-04-28 22:16 41.48221 2.57410 3803 ft 259 kts 159°
2026-04-28 22:16 41.46517 2.57919 3643 ft 248 kts 186°
2026-04-28 22:17 41.44961 2.57043 3565 ft 248 kts 223°
2026-04-28 22:17 41.44072 2.55104 3522 ft 255 kts 252°
2026-04-28 22:17 41.43771 2.52763 3443 ft 259 kts 266°
2026-04-28 22:17 41.43963 2.50395 3332 ft 253 kts 283°
2026-04-28 22:18 41.44126 2.48166 3207 ft 235 kts 259°
2026-04-28 22:18 41.43450 2.46300 3135 ft 223 kts 230°
2026-04-28 22:18 41.42543 2.44576 3095 ft 229 kts 238°
2026-04-28 22:18 41.41786 2.42739 2994 ft 225 kts 242°
2026-04-28 22:19 41.41078 2.40900 2909 ft 220 kts 242°
2026-04-28 22:19 41.40403 2.39080 2840 ft 219 kts 243°
2026-04-28 22:19 41.39757 2.37260 2824 ft 214 kts 244°
2026-04-28 22:19 41.39141 2.35483 2745 ft 209 kts 244°
2026-04-28 22:20 41.38542 2.33738 2645 ft 204 kts 244°
2026-04-28 22:20 41.37957 2.32025 2572 ft 202 kts 244°
2026-04-28 22:20 41.37378 2.30326 2507 ft 201 kts 244°
2026-04-28 22:20 41.36804 2.28641 2480 ft 198 kts 244°
2026-04-28 22:21 41.36256 2.27030 2405 ft 182 kts 244°
2026-04-28 22:21 41.35763 2.25580 2332 ft 163 kts 244°
2026-04-28 22:21 41.35309 2.24252 2270 ft 159 kts 244°
2026-04-28 22:21 41.34844 2.22890 2062 ft 163 kts 244°
2026-04-28 22:22 41.34379 2.21524 1842 ft 161 kts 244°
2026-04-28 22:22 41.33918 2.20175 1626 ft 159 kts 245°
2026-04-28 22:22 41.33461 2.18833 1417 ft 159 kts 244°
2026-04-28 22:22 41.33006 2.17498 1194 ft 158 kts 244°
2026-04-28 22:23 41.32552 2.16168 996 ft 157 kts 245°
2026-04-28 22:23 41.32104 2.14839 768 ft 158 kts 246°
2026-04-28 22:23 41.31645 2.13510 550 ft 159 kts 244°
2026-04-28 22:23 41.31183 2.12183 326 ft 157 kts 245°
2026-04-28 22:24 41.30739 2.10868 154 ft 156 kts 245°
2026-04-28 22:24 41.30286 2.09544 33 ft 154 kts 245°
2026-04-28 22:24 41.29882 2.08358 29 ft 122 kts 245°
2026-04-28 22:24 41.29593 2.07521 25 ft 77 kts 245°
2026-04-28 22:25 41.29486 2.07205 23 ft 8 kts 245°
2026-04-28 22:25 41.29468 2.07141 22 ft 13 kts 260°
2026-04-28 22:25 41.29519 2.07049 19 ft 12 kts 332°
2026-04-28 22:25 41.29592 2.07004 19 ft 9 kts 335°
2026-04-28 22:26 41.29631 2.06948 20 ft 9 kts 278°
2026-04-28 22:26 41.29618 2.06869 22 ft 9 kts 265°
2026-04-28 22:26 41.29659 2.06806 20 ft 9 kts 325°
2026-04-28 22:26 41.29716 2.06763 24 ft 9 kts 333°
2026-04-28 22:27 41.29765 2.06705 23 ft 9 kts 316°
2026-04-28 22:27 41.29776 2.06626 26 ft 10 kts 253°
2026-04-28 22:27 41.29757 2.06569 26 ft 0 kts 243°
2026-04-28 22:27 41.29755 2.06563 26 ft 1 kts 244°
2026-04-28 22:28 41.29750 2.06550 27 ft 2 kts 244°
2026-04-28 22:28 41.29748 2.06543 25 ft 0 kts 244°